Helicity
-13 7 2 4 3 3 -33 99 93 122 69 95 64 54 62 81 170 130 56 -7 12 -35 27 61 71 107 123 132 131 124 112 101 118 111 109 122 105 100 101 88 62 38 43 33 28 33 31 36 41
-11 -7 4 -6 -3 -26 14 141 69 192 120 80 51 38 28 100 77 60 69 9 5 -33 18 27 55 79 108 136 117 124 115 113 114 127 122 119 107 101 92 91 64 37 39 33 29 35 23 36 56
-4 -7 11 31 5 -22 55 121 246 119 59 109 102 52 104 115 90 47 47 11 -21 -5 11 26 99 53 75 102 108 107 114 109 109 122 114 117 114 93 83 75 58 41 33 35 28 32 41 56 75
14 30 34 33 -9 30 88 129 123 86 60 91 98 43 50 60 90 57 50 31 -22 6 4 78 88 64 70 70 72 83 95 90 89 117 109 96 95 76 71 67 63 49 28 29 27 41 66 66 75
11 27 28 40 -3 48 130 153 108 113 118 86 88 105 65 100 79 71 25 29 28 24 31 -2 66 80 54 63 55 57 65 73 67 93 98 92 76 75 73 57 57 49 37 33 41 58 67 62 73
26 43 14 -3 4 112 79 124 109 107 122 76 84 105 37 65 109 113 53 19 44 72 25 -13 52 82 61 55 46 38 36 46 54 55 84 84 80 74 65 46 47 47 48 45 61 60 69 68 62
-3 24 6 17 39 50 129 163 112 150 110 116 90 78 59 105 109 91 97 27 37 65 26 11 27 64 69 66 52 41 22 9 35 25 32 68 69 59 50 41 36 40 42 46 62 61 61 61 58
20 36 7 26 28 45 171 149 104 87 99 77 60 124 169 145 58 56 64 46 39 58 58 37 24 52 52 44 69 58 46 14 11 37 -0 35 56 47 52 42 33 30 37 52 61 63 63 63 55
13 18 12 8 84 72 122 92 41 80 32 67 86 88 105 81 78 80 85 94 72 21 64 70 48 48 58 62 58 60 51 38 16 20 42 4 5 30 43 32 85 44 39 61 67 81 72 60 43
15 35 23 169 264 139 132 77 79 77 62 31 80 100 60 75 91 106 105 113 97 106 39 68 60 54 53 76 102 69 46 29 16 12 16 19 -7 23 20 67 79 62 50 62 68 81 62 41 8
48 40 119 136 151 67 73 66 105 60 50 94 85 67 55 46 71 90 94 105 108 74 99 58 74 71 61 56 81 95 69 50 46 28 20 12 16 17 13 61 59 57 59 48 56 55 16 7 -30
50 77 108 130 78 61 76 71 59 32 52 64 50 28 24 42 47 51 70 78 96 116 91 109 47 83 67 78 63 85 124 98 56 73 48 26 35 24 13 23 39 48 62 29 38 44 26 39 2
46 107 73 70 50 54 55 46 48 32 46 78 43 29 47 49 45 42 40 58 74 89 103 104 117 72 61 69 78 70 93 123 139 85 65 53 41 24 24 -3 28 33 69 54 48 60 31 35 28
176 78 52 55 56 49 45 29 22 13 55 44 34 47 46 47 62 65 62 54 89 101 90 99 104 104 79 71 95 98 69 90 124 150 90 58 23 36 26 8 1 16 47 44 64 75 63 28 36
72 53 38 46 74 54 65 -6 2 74 76 31 35 48 44 65 85 81 64 67 73 93 98 77 103 92 103 80 83 118 90 63 96 134 149 103 29 45 30 16 11 8 33 55 95 34 33 48 28
53 55 28 166 102 114 44 39 116 61 30 35 49 46 82 95 100 89 104 95 93 82 71 154 125 99 148 168 111 111 141 125 86 98 142 152 62 52 69 44 27 18 35 47 84 60 52 45 13
64 32 71 95 123 78 38 73 51 46 40 47 64 91 78 75 74 83 70 95 107 110 124 67 130 117 67 130 187 130 139 180 156 122 131 147 145 87 98 74 69 66 43 57 102 74 76 70 60
111 117 113 81 93 118 23 36 60 46 57 85 90 77 56 49 49 50 48 92 141 62 26 15 36 65 77 63 117 215 140 184 214 182 166 114 163 159 134 111 118 109 78 81 92 105 79 67 57
111 130 85 70 163 73 65 47 42 58 110 108 83 114 106 85 69 119 174 93 87 84 59 77 109 107 63 85 86 139 212 172 196 252 207 166 130 176 182 161 175 166 122 90 131 102 87 74 76
97 91 64 127 81 73 37 21 48 142 76 81 127 92 84 90 121 72 82 51 62 56 65 139 117 106 283 137 97 116 138 148 154 238 280 242 172 154 220 216 223 205 176 134 137 106 96 94 153
90 138 150 104 70 19 41 2 98 34 38 83 104 114 105 185 91 74 36 39 29 68 81 53 92 92 165 484 130 127 122 133 160 162 239 282 221 135 201 225 252 264 216 210 203 140 99 142 191
102 201 100 78 83 110 95 105 35 152 98 174 121 122 109 75 69 49 16 23 19 46 26 31 59 87 52 112 369 125 115 118 164 145 174 274 224 160 162 217 264 286 256 245 219 173 138 169 221
268 124 78 54 57 64 16 101 41 88 337 252 181 71 23 60 53 7 20 32 -5 -12 43 60 43 59 52 56 315 140 133 145 147 113 98 160 201 206 160 208 208 270 270 263 264 202 186 216 187
133 73 40 39 45 94 50 152 62 227 339 234 125 8 32 78 36 -10 10 -4 -17 8 70 64 83 93 96 121 201 131 90 143 226 154 139 137 181 229 166 160 186 242 232 262 267 220 223 231 184
86 86 137 102 99 86 172 103 52 251 291 155 82 10 56 51 15 -30 -42 -49 -28 44 149 74 143 137 169 279 171 117 95 62 171 191 140 149 178 171 170 157 156 186 221 229 258 228 234 233 211
154 122 219 252 187 164 117 130 159 231 224 177 83 36 46 12 13 -25 -60 -10 40 66 152 107 205 268 239 406 47 83 74 61 111 160 166 275 257 202 102 154 136 169 218 243 271 291 223 220 226
187 137 193 168 87 136 74 98 18 220 268 181 53 17 27 12 30 -65 -47 -15 64 57 134 103 235 318 361 225 108 45 59 101 83 103 120 197 259 117 99 150 159 144 217 224 257 293 255 255 234
173 197 140 119 178 162 117 113 165 318 208 121 47 9 24 17 11 -61 -47 -18 79 46 92 121 280 295 396 350 221 54 40 81 52 90 121 140 186 251 155 177 188 193 255 237 248 262 231 219 243
200 133 123 171 151 187 156 143 155 179 143 92 30 25 37 24 -30 -36 -36 15 75 21 118 183 350 390 394 413 360 283 108 10 40 91 109 47 50 133 155 105 169 217 249 247 258 277 249 190 182
105 107 92 169 140 93 105 86 170 132 150 104 20 18 38 27 -35 -30 -27 12 35 28 194 290 363 468 485 411 346 368 358 309 232 200 196 83 103 134 141 98 150 197 212 215 265 282 227 214 203
Wind_Speed
38 27 31 35 31 26 41 28 29 27 27 41 45 41 43 40 41 39 57 53 55 26 15 12 16 19 20 22 22 23 23 22 20 18 15 14 16 18 20 22 25 26 24 23 22 22 20 19 20
40 32 28 35 32 34 37 23 25 29 36 44 39 40 32 33 43 43 54 63 49 19 14 14 15 15 18 22 22 22 22 21 20 18 15 14 16 17 20 22 24 24 23 22 22 22 19 18 19
31 27 33 31 26 42 39 32 27 35 35 43 41 36 37 37 48 52 58 57 38 17 14 12 13 12 14 16 19 20 20 20 20 19 18 16 15 16 20 22 23 23 22 21 22 21 20 18 19
27 21 26 39 46 43 34 30 36 39 30 40 42 36 39 33 48 54 59 53 36 17 13 11 10 11 12 12 15 17 18 18 19 19 19 17 16 16 18 22 23 22 21 20 19 19 19 18 18
23 32 41 32 38 33 35 38 39 42 39 43 43 42 45 30 49 57 56 51 40 19 13 13 7 7 9 10 12 14 16 17 16 17 18 15 14 15 17 22 20 21 20 20 18 17 18 18 18
32 37 42 41 30 28 32 34 41 39 43 45 42 49 41 31 56 61 57 51 39 29 17 19 10 7 7 9 10 12 13 14 15 14 15 14 12 13 14 19 18 19 19 19 17 17 17 17 17
38 49 51 59 48 45 31 34 43 44 47 46 49 48 44 49 64 64 60 50 43 28 21 19 12 9 12 12 11 11 11 12 13 13 13 13 11 10 11 13 16 17 16 17 17 16 16 17 18
45 50 55 51 45 36 32 42 43 45 48 46 37 45 48 63 66 62 56 47 46 36 27 20 14 11 11 12 12 12 12 11 10 10 10 10 10 11 11 11 10 14 13 15 16 15 14 13 16
39 52 53 51 41 38 38 49 45 48 45 42 45 42 54 61 62 59 56 51 50 41 37 28 21 16 13 11 13 13 12 11 8 8 8 8 8 9 11 10 9 8 9 12 14 14 11 13 12
37 49 54 43 43 49 54 54 56 52 50 49 37 47 53 60 62 61 58 57 55 54 41 36 31 26 21 19 16 15 11 8 4 4 4 4 6 8 8 10 14 13 9 9 11 13 15 14 13
38 43 47 42 44 50 55 54 53 54 52 52 52 55 57 62 65 64 62 61 60 55 54 42 37 34 28 25 20 17 14 12 6 1 2 1 6 13 11 14 15 15 12 8 9 13 17 19 21
44 40 44 44 46 50 52 56 53 52 53 55 50 54 58 66 67 66 68 66 65 63 58 57 46 42 37 34 26 23 18 16 13 7 5 2 9 10 11 12 10 9 11 5 9 14 19 19 17
39 41 40 42 45 48 53 56 56 61 58 49 52 56 70 70 66 63 64 67 67 66 64 60 60 52 48 43 39 32 27 21 21 16 10 8 9 9 10 14 11 9 9 6 5 9 19 18 17
38 40 41 42 41 48 50 57 54 53 44 52 55 68 68 66 62 63 64 66 67 69 69 68 67 64 58 52 49 44 38 32 26 24 19 16 11 14 10 12 14 14 11 11 8 2 7 13 14
40 42 37 32 37 46 49 58 31 43 48 64 67 66 64 61 62 64 65 68 71 72 73 74 76 72 69 64 59 56 49 42 37 31 28 24 20 14 13 15 14 15 16 17 12 10 4 10 13
38 37 47 20 30 39 44 55 42 45 60 69 66 63 63 64 66 67 71 76 77 78 79 85 82 81 86 80 65 64 62 55 48 40 34 32 29 21 17 19 18 16 17 10 12 8 6 1 13
27 45 34 37 33 41 43 58 53 62 69 65 60 62 64 66 66 72 79 86 88 91 95 98 97 92 80 83 86 74 74 68 60 52 45 41 37 31 23 22 21 18 16 12 8 8 8 7 5
50 33 36 44 36 55 59 60 59 66 59 56 55 59 65 65 74 84 91 93 96 104 110 108 102 95 88 82 83 86 78 79 75 65 55 47 45 39 34 27 25 22 20 16 11 7 7 6 4
45 49 53 50 51 58 56 67 66 57 43 47 52 64 69 77 83 89 96 103 111 113 116 116 114 113 91 87 88 90 88 86 84 77 67 56 50 46 41 36 32 28 25 22 15 11 9 10 8
42 47 52 52 43 64 62 68 56 33 39 43 59 68 78 84 90 96 101 109 112 119 116 116 113 110 109 94 87 89 93 88 92 87 77 66 58 54 47 44 39 35 33 28 23 16 18 14 8
35 42 50 56 65 65 50 52 27 29 32 48 64 78 83 88 100 105 110 112 115 118 108 102 103 103 102 101 87 96 100 103 91 96 90 78 67 57 52 47 41 39 39 35 29 25 21 22 14
41 31 44 53 58 56 57 56 39 32 38 58 73 83 88 96 99 105 109 115 114 112 107 111 110 111 112 105 97 103 110 116 106 97 98 85 75 64 62 52 46 41 44 41 35 31 29 24 23
39 40 47 49 51 57 54 43 26 27 50 66 78 87 89 91 99 108 109 109 112 114 111 105 106 108 107 106 103 82 102 109 107 110 112 96 82 71 65 57 51 44 47 46 40 35 32 29 27
38 41 40 42 42 53 36 39 53 48 57 70 79 89 90 92 97 100 102 112 116 111 106 104 100 103 102 100 101 82 91 100 104 111 109 102 86 74 67 63 54 48 47 46 40 37 34 32 33
30 38 46 43 38 45 33 49 47 43 56 69 80 90 91 91 96 102 112 118 120 117 108 104 104 108 100 100 92 87 89 109 106 110 114 109 82 78 75 62 60 52 47 44 39 37 37 35 34
31 39 43 52 48 49 54 54 43 37 53 69 78 85 89 92 94 104 112 117 116 113 104 105 103 95 87 85 72 83 94 99 105 99 101 100 95 70 81 68 62 60 52 45 43 41 40 37 38
29 36 35 43 44 47 44 40 40 39 62 76 86 90 94 92 93 103 111 115 110 109 99 101 95 81 71 67 68 85 93 101 100 101 105 99 94 114 95 73 68 68 58 51 46 45 42 42 39
33 27 38 36 45 46 48 49 40 56 69 82 88 90 92 89 95 101 108 114 106 103 95 91 67 55 52 46 43 55 84 97 96 102 103 100 76 74 90 76 81 73 63 59 54 49 45 45 43
33 33 36 42 40 48 60 47 38 54 64 73 81 82 85 88 96 100 105 110 103 93 88 72 56 46 38 30 28 29 43 63 89 84 73 89 100 79 56 73 73 67 60 60 57 56 51 53 52
28 32 29 40 39 42 51 62 35 47 58 73 78 78 80 86 91 96 102 107 104 88 75 66 54 47 37 29 24 23 27 33 47 57 64 58 43 30 31 56 57 58 61 57 57 58 57 54 50
Wind_Direction
329 353 344 335 334 333 314 325 335 339 338 333 326 330 329 332 331 324 316 334 324 351 35 96 103 107 100 94 84 79 71 66 77 77 61 60 75 71 70 74 96 97 77 80 88 85 80 66 62
318 336 347 325 329 315 333 351 335 340 328 322 332 330 340 346 338 328 320 312 327 14 49 103 104 100 99 102 97 81 73 68 74 83 78 77 79 71 81 86 97 96 82 76 82 83 74 69 72
338 344 329 327 322 308 327 337 339 329 326 326 328 337 333 332 326 323 319 321 341 25 50 84 99 89 87 92 96 87 74 71 72 80 87 89 79 79 94 94 99 95 92 83 82 69 66 72 76
348 355 337 310 303 316 318 333 326 319 337 337 334 328 335 344 330 326 322 329 345 8 24 68 80 94 90 85 85 74 64 69 76 78 90 96 85 87 89 101 100 93 97 89 73 61 64 69 78
349 329 310 313 310 316 326 320 321 315 323 327 329 322 323 340 333 326 327 330 330 353 13 9 49 78 72 71 75 66 61 68 72 73 88 84 78 81 87 108 97 94 89 88 77 68 71 78 84
320 318 307 309 320 324 327 333 322 322 322 324 324 318 325 336 324 318 324 327 330 325 331 344 350 6 18 27 34 46 60 68 65 65 73 76 70 69 77 104 97 91 88 90 77 77 81 84 91
308 297 300 295 305 312 328 339 323 322 320 319 318 315 317 322 320 314 313 325 326 321 317 320 329 326 333 346 0 17 35 50 68 56 63 71 55 48 47 77 101 96 90 90 87 85 92 100 104
304 300 296 299 304 314 332 327 330 323 318 324 329 317 313 315 318 316 317 322 322 314 308 307 312 310 315 326 337 344 358 23 54 34 49 54 30 0 9 11 65 97 87 90 98 97 96 91 108
315 297 297 300 304 312 325 320 327 325 321 321 323 323 318 316 318 318 317 318 318 318 302 298 299 302 303 310 323 326 336 350 29 37 8 39 47 12 353 353 10 43 71 84 102 105 98 100 93
310 302 301 314 312 309 313 316 318 321 320 318 323 325 323 318 317 316 316 315 313 311 308 294 291 293 295 299 308 312 315 323 350 85 51 22 80 20 18 350 330 335 8 58 88 109 121 110 101
315 301 315 315 315 313 312 315 320 317 316 322 316 318 320 318 315 312 311 311 309 311 309 300 290 286 286 290 291 294 293 299 295 241 136 342 335 336 336 339 327 322 333 24 65 105 128 132 130
309 307 310 314 317 316 315 317 317 316 315 318 320 320 320 317 314 313 307 306 306 305 305 302 294 284 280 283 281 281 276 276 285 262 220 238 307 311 323 325 334 334 329 34 93 110 131 134 131
310 312 315 315 317 317 316 314 313 309 315 320 322 321 315 314 315 313 311 307 305 303 301 301 296 289 279 276 277 274 271 262 263 271 259 241 280 287 304 308 317 324 333 336 34 101 133 133 131
323 317 315 316 318 320 319 316 314 314 325 325 323 316 315 315 317 317 315 312 311 306 302 299 294 291 283 272 270 270 267 264 256 256 253 245 251 279 284 297 300 302 313 315 321 56 112 133 133
315 316 319 315 320 321 325 319 313 327 324 317 317 318 319 320 320 319 317 315 313 311 305 300 293 289 285 278 267 265 261 258 255 250 245 237 240 256 271 281 288 292 298 304 311 299 122 132 133
317 317 314 328 329 329 329 319 333 330 321 315 319 321 322 321 322 322 321 318 315 311 308 302 298 290 282 279 272 262 259 255 253 249 244 236 234 243 250 267 275 282 289 299 298 284 279 208 145
315 310 317 327 331 327 326 317 322 321 318 320 324 325 324 323 325 324 321 316 314 310 306 300 296 291 287 279 274 266 258 254 249 250 244 236 230 235 240 252 262 267 275 283 286 272 279 286 291
312 318 323 320 329 324 319 315 320 320 322 325 330 331 329 329 327 323 319 318 314 309 305 301 300 293 286 279 274 271 259 253 250 245 243 236 231 227 235 241 247 248 259 264 264 266 265 270 238
314 311 312 317 325 322 322 317 318 323 331 333 334 333 331 326 327 327 325 321 316 311 307 301 298 293 290 277 270 264 262 254 247 245 239 236 233 226 226 238 239 237 246 253 246 251 253 268 280
316 313 314 319 329 321 321 317 322 334 335 338 336 333 330 328 328 327 326 323 322 316 312 307 301 295 289 280 267 263 258 254 249 243 238 235 232 227 221 230 234 233 244 245 245 245 258 262 236
317 316 316 317 319 320 322 327 330 333 341 340 337 332 331 332 329 329 330 328 326 323 320 314 308 299 293 285 269 260 256 254 245 243 238 234 233 230 228 224 231 229 240 242 241 243 246 254 261
316 327 324 322 323 321 328 318 321 325 331 336 335 335 335 332 335 335 333 332 330 326 317 310 303 296 283 278 276 257 252 246 244 243 239 234 231 231 233 230 227 225 237 243 239 243 248 251 256
322 325 322 322 320 319 319 314 343 332 325 331 335 337 338 338 339 338 337 336 330 323 321 317 307 296 287 278 272 258 253 249 242 240 239 235 229 230 230 233 226 225 232 241 240 239 237 245 258
324 324 321 322 322 315 311 318 320 320 327 330 335 339 341 341 341 344 341 334 330 334 326 319 317 308 296 282 271 254 253 248 239 236 236 238 229 230 231 232 232 229 233 234 235 235 236 240 252
320 321 319 316 319 322 331 318 313 330 336 339 338 340 343 345 343 344 335 333 331 335 328 328 323 309 299 282 267 250 249 242 240 234 234 236 232 233 233 229 232 229 229 231 234 234 241 238 246
318 316 315 313 316 316 321 316 327 338 342 342 344 346 347 348 347 338 332 339 342 337 333 334 328 313 304 290 263 250 246 240 240 233 234 233 235 236 239 233 232 237 235 233 236 243 244 245 251
316 313 325 317 311 316 318 322 329 342 338 340 342 345 346 348 347 328 332 338 348 337 344 340 328 314 303 292 269 246 241 235 234 234 233 238 236 237 239 238 235 236 238 238 237 242 243 248 249
309 319 318 315 314 314 317 321 323 333 334 338 342 345 347 350 342 328 335 339 350 339 344 330 316 304 296 289 275 245 223 227 230 232 236 236 231 221 231 237 237 237 238 241 242 246 248 249 252
301 301 307 310 312 315 315 326 340 337 341 343 345 349 351 351 331 331 336 344 351 330 333 323 321 316 308 293 267 249 233 237 232 239 244 240 221 225 224 228 238 238 239 242 243 247 250 252 256
293 299 298 306 309 310 318 318 345 348 349 347 349 352 353 349 329 331 337 343 341 328 324 324 322 322 315 297 283 266 254 256 255 252 252 273 241 218 212 233 240 240 242 243 244 246 249 250 252